Regional Weather Roundup
Issued by NWS

Home | Current Version | Previous Version | Text Only | Print | Product List | Glossary Off
Versions: 1 2 3 4 5 6 7 8 9 10 11 12 13 14 15 16 17 18 19 20 21 22 23 24 25 26 27 28 29 30 31 32 33 34 35 36 37 38 39 40 41 42 43 44 45 46 47 48 49 50

000
ASUS43 KDTX 230810
RWRMI
MICHIGAN HOURLY REGIONAL WEATHER ROUNDUP
NATIONAL WEATHER SERVICE DETROIT/PONTIAC MI
400 AM EDT SAT SEP 23 2017

NOTE: "FAIR" INDICATES FEW OR NO CLOUDS BELOW 12,000 FEET WITH NO
SIGNIFICANT WEATHER AND/OR OBSTRUCTION TO VISIBILITY.

MIZ047>049-052>055-059>063-066>070-074>076-081>083-230900-
SOUTHEAST LOWER MICHIGAN

CITY           SKY/WX    TMP DP  RH WIND       PRES   REMARKS
ADRIAN           N/A     62  60  93 CALM      30.10S FOG
ALMA           CLEAR     65  62  91 SW5       30.07R
ANN ARBOR      FOG       61  61 100 CALM      30.08F VSB 1/4
BAD AXE        CLOUDY    70  65  83 S5        30.07S
CARO           CLEAR     66  64  93 CALM      30.07S
DETROIT CITY   CLEAR     67  63  87 S3        30.07F
DETROIT        CLEAR     68  65  90 CALM      30.09S
FLINT          CLEAR     65  61  87 CALM      30.08S
GROSSE ILE     FOG       64  63  97 CALM      30.07S VSB 3/4
HILLSDALE      CLEAR     63  61  94 SE3       30.10S
HOWELL         CLEAR     69  64  83 S5        30.09F

CITY           SKY/WX    TMP DP  RH WIND       PRES   REMARKS
JACKSON        CLEAR     69  63  81 CALM      30.09S
LAMBERTVILLE   FOG       64  61  92 CALM      30.08S VSB 1
LANSING        CLEAR     70  63  78 CALM      30.09S
LAPEER         FAIR      65  64  96 CALM      30.08S
MASON          CLEAR     65  63  91 CALM      30.09S
MONROE         FOG       63  61  93 CALM      30.08R VSB 3/4
MT. CLEMENS    CLEAR     64  64 100 CALM      30.07S
PONTIAC        CLEAR     68  64  87 CALM      30.08S
PORT HOPE        N/A     74  65  73 VRB6      30.03F
PORT HURON     CLEAR     64  63  94 CALM      30.08S FOG
TRI CITIES     CLEAR     72  68  87 S7        30.06S
MIDLAND        FAIR      64  63  99 CALM      30.05S
TROY           CLEAR     70  64  82 W3        30.10S
SAGINAW HB     CLEAR     70  64  83 S7        30.05F
$$
MIZ043>046-050>051-056>058-064>065-071>073-077>080-230900-
SOUTHWEST LOWER MICHIGAN

CITY           SKY/WX    TMP DP  RH WIND       PRES   REMARKS
BATTLE CREEK   CLEAR     69  65  86 CALM      30.09R
BENTON HARBOR  CLEAR     70  65  84 SE3       30.05S
BIG RAPIDS     CLEAR     64  61  92 CALM      30.05F FOG
COLDWATER      CLEAR     68  67  98 CALM      30.08F
FREMONT        FAIR      65  65  98 CALM      30.04F
HOLLAND        CLEAR     69  64  84 SE3       30.06S
GRAND RAPIDS   CLEAR     69  65  86 S8        30.06S
IONIA          FAIR      71  62  73 S6        30.06S
KALAMAZOO      CLEAR     71  64  78 SE3       30.08S
LUDINGTON      CLEAR     74  64  73 S6        30.02S
MARSHALL       CLEAR     66  65  98 CALM      30.09R
MOUNT PLEASANT FOG       64  64 100 CALM      30.06R VSB 1
MUSKEGON       CLEAR     68  65  90 SE7       30.04F
SOUTH HAVEN    CLEAR     69  66  91 CALM      30.05S
$$
MIZ016>042-230900-
NORTHERN LOWER MICHIGAN

CITY           SKY/WX    TMP DP  RH WIND       PRES   REMARKS
ALPENA         CLEAR     67  65  93 SW3       30.04F
BEAVER ISLAND  CLEAR     71  64  78 S6        30.01R
BELLAIRE       CLEAR     64  62  94 CALM      30.03R
CADILLAC       CLEAR     62  59  88 CALM      30.07R FOG
CHARLEVOIX     CLEAR     70  64  80 S7        30.05R
FRANKFORT      CLEAR     79  66  65 S6        30.01R
GAYLORD        CLEAR     69  61  75 S9        30.07S
GRAYLING       CLOUDY    63  60  93 CALM      30.08S
HARBOR SPRINGS CLEAR     65  62  91 CALM      30.02R
HOUGHTON LAKE  CLEAR     60  59  96 CALM      30.07F
MANISTEE       CLEAR     65  62  90 E5        30.02R
OSCODA         CLOUDY    64  64 100 CALM      30.03S
PELLSTON       CLEAR     60  60 100 CALM      30.03R
ROGERS CITY    PTCLDY    72  61  70 SW7       30.04S
TRAVERSE CITY  CLEAR     71  64  78 S5        30.01S
$$
MIZ007>008-015-230900-
EASTERN UPPER MICHIGAN

CITY           SKY/WX    TMP DP  RH WIND       PRES   REMARKS
KINROSS        CLOUDY    66  64  93 SE3       30.02S
MACKINAC ISLAN CLOUDY    71  61  70 S10       30.02S
NEWBERRY       CLOUDY    66  65  97 S8        29.99S
S. S. MARIE    MOCLDY    66  65  96 CALM      30.01S FOG
MUNISING         N/A     67  66  97 S6        29.94F
$$
MIZ004>006-011>014-085-230900-
CENTRAL UPPER MICHIGAN

CITY           SKY/WX    TMP DP  RH WIND       PRES   REMARKS
MANISTIQUE     PTCLDY    67  61  81 S7        29.98S
ESCANABA       CLEAR     66  66 100 CALM      29.96S FOG
MENOMINEE      CLEAR     70  66  87 SW5       29.98R
SAWYER-GWINN   PTCLDY    62  61  97 S7        29.97R FOG
$$
MIZ001>003-009>011-084-230900-
WESTERN UPPER MICHIGAN

CITY           SKY/WX    TMP DP  RH WIND       PRES   REMARKS
IRON MOUNTAIN  PTCLDY    63  61  93 CALM      29.96S FOG
HOUGHTON       CLOUDY    64  62  93 E3        29.89R
COPPER HARBOR    N/A     67  63  87 W8        29.87S
IRONWOOD       PTCLDY    76  67  73 SW13G21   29.91R
$$

ABBREVIATIONS USED IN REMARKS
   TC - TEMPERATURE IN CELSIUS
  WCI - WIND CHILL INDEX
   HX - HEAT INDEX
  VSB - VISIBILITY





USA.gov is the U.S. government's official web portal to all federal, state and local government web resources and services.